Terminal Aerodrome Forecast
Issued by NWS

Home | Current Version | Previous Version | Text Only | Print | Product List | Glossary On
Versions: 1 2 3 4 5 6 7 8 9 10 11 12
000
FTAK31 PAFA 202327
TAFATA
TAF
PATA 202327Z 2100/2124 12012KT P6SM FEW180
     FM210400 05004KT P6SM SKC
     FM212000 09008KT P6SM FEW050 SCT200=

USA.gov is the U.S. government's official web portal to all federal, state and local government web resources and services.